LKTB Weather Reports


Display with metric or nautical units.
time (UTC)temp
F
wind
direction
speed
MPH
gust
MPH
rain 1hr
in
rain 24hr
in
rain mn
in
humidity
%
barometer
mb
20260503033224 52 0 2.0 0.0 0.00 0.00 0.00 50 1019.0
20260503032103 48 40 7.0 0.0 0.00 0.00 0.00 57
20260503030232 50 340 3.0 0.0 0.00 0.00 0.00 53 1019.0
20260503023217 48 20 3.0 0.0 0.00 0.00 0.00 57 1019.0
20260503022102 48 50 5.0 0.0 0.00 0.00 0.00 57
20260503020224 48 0 2.0 0.0 0.00 0.00 0.00 57 1019.0
20260503013217 45 0 1.0 0.0 0.00 0.00 0.00 65 1019.0
20260503012104 48 60 2.0 0.0 0.00 0.00 0.00 61
20260503010225 48 0 2.0 0.0 0.00 0.00 0.00 61 1018.0
20260503003224 50 0 2.0 0.0 0.00 0.00 0.00 61 1019.0
20260503002105 50 40 2.0 0.0 0.00 0.00 0.00 57
20260503000226 50 320 2.0 0.0 0.00 0.00 0.00 57 1019.0
20260502233217 52 0 1.0 0.0 0.00 0.00 0.00 53 1019.0
20260502232046 50 10 5.0 0.0 0.00 0.00 0.00 61
20260502230230 50 0 1.0 0.0 0.00 0.00 0.00 61 1019.0
20260502223216 48 290 3.0 0.0 0.00 0.00 0.00 61 1019.0
20260502222104 52 40 5.0 0.0 0.00 0.00 0.00 50
20260502220225 52 0 2.0 0.0 0.00 0.00 0.00 50 1019.0
20260502213216 57 340 3.0 0.0 0.00 0.00 0.00 44 1019.0
20260502212104 57 350 2.0 0.0 0.00 0.00 0.00 44
20260502210225 57 310 3.0 0.0 0.00 0.00 0.00 44 1019.0
20260502203217 63 0 3.0 0.0 0.00 0.00 0.00 36 1019.0
20260502202105 64 40 7.0 0.0 0.00 0.00 0.00 34
20260502200231 64 60 6.0 0.0 0.00 0.00 0.00 34 1019.0
20260502193216 64 60 6.0 0.0 0.00 0.00 0.00 36 1019.0
20260502192105 66 50 5.0 0.0 0.00 0.00 0.00 32
20260502190232 66 60 3.0 0.0 0.00 0.00 0.00 34 1019.0
20260502183223 68 90 3.0 0.0 0.00 0.00 0.00 30 1019.0
20260502182104 68 110 5.0 0.0 0.00 0.00 0.00 30
20260502180225 68 100 6.0 0.0 0.00 0.00 0.00 30 1019.0
20260502170224 70 100 6.0 0.0 0.00 0.00 0.00 28 1019.0
20260502163223 72 120 6.0 0.0 0.00 0.00 0.00 26 1020.0
20260502162104 73 100 7.0 0.0 0.00 0.00 0.00 21
20260502160232 73 0 2.0 0.0 0.00 0.00 0.00 21 1020.0
20260502152032 73 100 7.0 0.0 0.00 0.00 0.00 21
20260502150225 73 80 7.0 0.0 0.00 0.00 0.00 21 1020.0
20260502130225 73 0 5.0 0.0 0.00 0.00 0.00 25 1022.0
20260502123224 72 0 5.0 0.0 0.00 0.00 0.00 26 1022.0
20260502122109 72 110 7.0 0.0 0.00 0.00 0.00 26
20260502120232 72 100 8.0 0.0 0.00 0.00 0.00 28 1022.0
20260502113224 72 0 3.0 0.0 0.00 0.00 0.00 26 1023.0
20260502112106 70 80 7.0 0.0 0.00 0.00 0.00 28
20260502110232 72 0 6.0 0.0 0.00 0.00 0.00 30 1023.0
20260502103224 70 0 3.0 0.0 0.00 0.00 0.00 28 1024.0
20260502102107 70 60 5.0 0.0 0.00 0.00 0.00 28
20260502100227 70 320 5.0 0.0 0.00 0.00 0.00 28 1024.0
20260502090227 68 0 3.0 0.0 0.00 0.00 0.00 30 1025.0
20260502070234 59 0 2.0 0.0 0.00 0.00 0.00 47 1025.0
20260502063224 55 0 0.0 0.0 0.00 0.00 0.00 54 1025.0
20260502062107 52 290 2.0 0.0 0.00 0.00 0.00 62
20260502060227 52 0 2.0 0.0 0.00 0.00 0.00 62 1025.0
20260502053217 50 0 2.0 0.0 0.00 0.00 0.00 61 1025.0
20260502052108 46 310 2.0 0.0 0.00 0.00 0.00 70
20260502050225 46 0 1.0 0.0 0.00 0.00 0.00 65 1025.0
20260502043216 43 0 2.0 0.0 0.00 0.00 0.00 75 1025.0
20260502042109 45 320 2.0 0.0 0.00 0.00 0.00 70
20260502040227 45 330 2.0 0.0 0.00 0.00 0.00 70 1025.0